Temp_Advection
nan nan nan nan nan nan nan nan nan nan nan nan nan nan nan nan nan nan nan nan nan nan nan nan nan nan nan nan nan nan nan nan nan nan nan nan nan nan nan nan nan nan nan nan
nan -1 -2 -1 0 -0 -0 -1 -1 -0 -0 -0 -0 -0 0 -0 -1 -1 2 0 -0 1 1 0 -0 -1 -1 -0 -0 0 0 0 0 -0 0 0 -0 -0 -0 -0 0 -0 0 nan
nan -1 -1 0 0 0 -0 -0 -1 -0 -0 0 -0 -0 0 -0 -0 -2 -2 1 0 -1 -0 0 -0 -1 -1 -0 -0 -0 0 0 0 0 0 0 0 0 -0 -0 -0 -0 0 nan
nan -1 0 1 -0 -0 1 -3 -1 -0 -0 -0 -0 -0 0 0 -0 -0 -3 1 1 0 -1 0 -0 -0 -1 -1 -0 -0 -0 -0 -0 -0 -0 0 0 -0 -0 -0 -0 0 -0 nan
nan -0 -0 -0 0 -1 -0 -1 -2 -0 0 0 -0 -0 -0 -0 -0 -1 -3 -0 0 0 0 0 1 -0 -0 -1 -1 -0 -0 0 -0 -0 -0 0 0 -0 0 0 0 -0 -0 nan
nan -0 -0 -0 0 0 -2 -2 -2 -1 -0 -0 -1 -0 -0 -1 -4 -3 -1 -0 -0 -0 0 -0 1 0 -0 -0 -0 -0 0 -0 0 0 0 0 0 0 0 -0 -0 -0 0 nan
nan -0 -0 0 0 0 0 -0 -0 -0 -1 -0 -0 -0 0 -2 -2 -1 -0 -0 -1 -0 0 0 -1 1 0 1 -0 -0 -0 -0 0 0 0 0 0 0 -0 -0 0 0 0 nan
nan -0 -1 -0 0 -0 -0 1 -0 0 -0 0 -0 0 -0 -2 -1 0 -0 -1 -0 1 0 0 -0 0 1 0 -0 -0 -0 -0 0 0 -0 -0 0 0 -0 0 -0 -0 0 nan
nan -1 -0 0 -0 0 0 -0 0 -0 -0 0 -0 -0 -0 -0 -0 -1 -1 -1 0 0 0 0 0 -0 0 -0 0 -0 -0 0 0 -0 -0 -0 -0 -0 0 -0 -0 0 0 nan
nan -1 0 0 0 0 -0 0 1 -1 -1 0 -0 -1 -0 1 2 -1 -1 -1 -0 -1 -0 -2 -1 1 -1 -1 -0 -0 0 0 -0 -0 -0 -0 -0 0 0 -0 0 0 -0 nan
nan -0 0 0 0 -0 -0 -0 -0 1 -1 -1 -0 -0 -1 0 -1 -0 0 -0 -0 -1 -1 -1 0 1 -1 -1 -1 1 0 -0 -0 -0 -0 -0 -0 -0 -0 -0 0 -0 -0 nan
nan 0 -0 -1 -0 -0 0 -0 0 0 -0 -1 -0 0 -1 -1 -1 -1 -1 -0 -0 -0 -1 -0 0 1 0 0 0 1 0 0 -0 0 0 -0 -0 -0 -0 0 0 0 0 nan
nan 0 -0 -1 0 0 1 -0 -0 -0 1 1 1 -0 -1 -2 -2 -1 -1 -0 0 -0 0 0 2 -1 2 2 1 -0 0 1 1 0 0 0 0 0 0 0 0 0 -0 nan
nan -0 1 -0 -0 -0 -1 -2 -1 0 0 -0 1 -1 -1 -1 -1 -0 -0 -1 2 1 1 1 1 0 1 1 0 0 -0 -0 0 0 0 0 0 -0 -0 0 0 0 0 nan
nan 0 -1 0 0 0 0 -1 -1 -1 -0 -0 0 -0 -0 1 1 2 1 -0 1 1 1 2 1 1 0 -1 0 1 -0 -0 -0 0 0 0 -0 0 0 1 0 0 0 nan
nan 0 -0 -1 -0 0 -0 -1 -1 -1 -0 -0 0 0 0 -1 -3 -8 1 -0 -0 2 2 2 1 1 1 0 1 0 1 1 0 1 0 0 0 1 1 0 1 1 0 nan
nan -1 -0 -1 -1 -1 -0 -1 -1 -2 0 0 1 -1 -0 -1 -2 -0 -1 0 -0 1 1 1 1 0 1 1 1 1 1 1 1 0 0 -0 0 1 1 1 1 0 0 nan
nan 0 0 0 -2 -0 0 -1 -2 -3 -3 -2 -3 -1 -1 -1 -1 -1 0 1 0 0 1 0 1 1 0 0 1 1 1 1 0 0 0 1 1 0 0 0 0 0 1 nan
nan 0 1 -0 -0 -4 0 -1 -1 -0 -1 -1 -1 -1 -0 -0 0 0 0 0 0 1 1 0 0 1 0 0 1 0 1 0 0 0 0 0 0 0 0 0 0 0 0 nan
nan -0 0 0 1 0 -2 -2 -1 -1 0 -1 -0 -2 -0 -0 0 0 0 -0 -0 0 0 1 1 1 1 0 0 1 0 0 0 0 0 0 0 0 0 0 0 0 0 nan
nan -1 -0 0 -0 -0 -0 -1 -1 -0 -0 -1 -0 -0 -1 -0 -0 0 0 0 0 0 0 0 0 1 1 1 1 1 0 0 0 0 0 0 0 0 0 0 0 0 0 nan
nan -0 -1 -1 0 -0 -1 -0 0 -0 -0 -0 -0 -0 0 -1 -0 -0 0 0 0 0 0 0 0 1 1 1 1 1 1 1 1 1 1 1 1 0 0 0 0 0 0 nan
nan 0 0 -1 -0 0 0 -0 0 0 -0 -0 0 -0 -1 -1 -0 0 -0 0 0 1 0 1 1 0 0 1 1 1 1 1 1 1 1 1 1 0 0 0 0 0 0 nan
nan -0 0 1 -1 -0 -0 -0 -0 -0 -0 -0 -0 -0 -1 -1 -0 -0 -0 -0 -0 0 0 0 1 0 -0 0 0 0 0 0 0 0 0 0 0 0 0 0 0 0 0 nan
nan 0 -0 -0 0 -0 0 -0 -0 -0 -0 -0 -0 -0 -0 -1 -0 -0 -0 -0 -0 -0 -0 -0 0 0 0 0 -0 -0 0 0 0 -0 0 0 0 0 0 0 -0 -0 0 nan
nan nan nan nan nan nan nan nan nan nan nan nan nan nan nan nan nan nan nan nan nan nan nan nan nan nan nan nan nan nan nan nan nan nan nan nan nan nan nan nan nan nan nan nan
Wind_Speed
16 11 16 19 19 7 6 4 9 9 12 5 3 4 12 11 11 14 25 24 28 26 20 20 24 23 19 18 16 16 21 16 13 12 16 12 12 9 10 5 5 6 6 11
11 16 19 20 6 10 16 13 14 11 15 3 4 14 14 10 8 8 17 25 24 22 19 22 23 22 23 20 19 19 16 17 14 14 12 12 8 11 8 6 5 7 7 10
18 15 19 20 7 6 24 9 13 8 10 3 9 3 8 10 12 18 13 27 28 33 25 26 23 23 25 23 18 18 14 20 17 9 10 18 11 11 9 6 4 9 4 7
16 15 18 18 12 11 8 17 12 11 8 3 13 3 1 14 10 14 22 15 24 25 29 28 25 26 26 22 17 18 16 16 15 15 11 11 12 11 9 5 7 7 6 6
12 12 10 16 17 17 12 12 18 15 8 9 12 4 6 10 11 17 29 18 27 33 29 27 27 23 24 24 24 18 15 15 15 17 16 10 7 7 5 9 10 8 7 7
17 14 7 9 8 12 18 21 16 13 5 4 12 5 8 16 31 24 20 18 17 22 27 29 25 30 25 23 26 21 17 15 17 16 15 13 9 12 9 10 7 3 4 9
13 10 5 10 15 8 7 13 4 3 7 4 15 9 6 23 18 23 22 25 23 29 21 32 20 29 30 29 27 27 22 18 19 16 13 11 9 15 12 11 8 11 7 7
10 12 15 15 17 10 11 12 5 3 3 1 4 2 5 23 26 38 35 31 28 29 23 29 34 27 25 27 27 26 22 17 18 13 14 12 12 9 9 7 11 12 5 10
7 15 14 13 14 13 13 10 16 5 7 6 1 5 2 20 15 24 29 35 31 17 26 25 32 29 26 30 28 31 22 16 17 15 15 16 13 13 11 8 11 12 5 3
6 13 16 13 12 15 16 7 10 5 3 5 6 7 5 9 15 21 24 35 34 30 37 38 32 30 35 34 25 30 23 19 18 19 15 11 8 14 9 6 6 5 8 14
12 11 2 10 10 13 11 12 10 13 8 4 8 4 11 3 10 16 26 36 38 35 34 31 37 38 36 33 33 27 23 19 20 23 17 16 13 9 11 9 9 7 9 16
10 10 8 12 13 16 16 16 17 10 11 10 10 3 12 16 10 16 30 37 38 38 34 28 27 44 42 29 29 35 23 23 26 24 20 18 12 13 11 11 12 10 11 11
11 5 8 13 8 8 13 17 14 15 15 15 9 5 17 17 18 22 20 35 35 38 36 29 32 34 36 23 27 31 18 29 21 27 23 21 18 16 14 15 13 11 10 8
4 12 12 5 8 11 15 18 17 16 12 15 13 15 16 16 14 15 20 33 41 38 33 30 19 19 22 30 24 27 19 23 20 20 20 16 13 18 20 17 15 15 17 13
5 11 13 4 11 10 15 20 20 18 16 17 13 5 9 9 10 11 12 18 37 35 30 38 23 26 30 32 25 30 29 25 18 14 15 20 23 22 19 20 22 19 17 16
10 10 13 14 9 12 15 18 21 18 20 17 16 8 16 13 20 38 8 9 21 26 26 25 25 19 23 24 22 18 21 21 17 24 20 20 20 23 27 26 19 21 22 16
9 13 5 13 7 14 9 10 14 15 9 5 12 10 9 10 18 3 8 5 10 15 15 18 19 14 17 20 23 27 27 23 21 17 17 18 17 24 35 32 29 21 19 16
15 9 3 7 10 11 9 17 17 20 20 19 25 17 17 16 24 18 12 8 4 15 15 12 15 19 16 14 13 15 17 18 14 12 12 12 11 14 17 21 23 21 22 17
3 7 8 1 3 17 1 8 12 14 18 16 17 15 12 17 14 7 9 11 12 13 13 12 16 15 19 19 19 20 19 19 18 14 10 9 8 7 8 8 9 16 11 15
10 7 7 1 5 1 12 15 22 19 6 23 11 18 10 9 2 3 8 14 13 9 11 15 15 15 16 20 24 22 20 18 16 15 11 9 8 6 5 4 10 14 14 11
9 8 9 11 3 3 9 18 13 7 7 16 20 5 13 8 4 13 16 15 10 8 14 13 14 16 19 24 25 19 16 15 16 15 15 14 11 11 10 10 11 11 10 11
5 4 5 6 4 3 13 15 0 2 4 9 14 8 5 18 18 17 15 10 9 13 15 13 14 14 13 13 15 16 15 13 14 16 17 16 16 13 10 12 12 13 12 8
3 2 6 7 3 4 7 11 8 8 6 8 9 3 13 11 15 12 13 9 14 16 17 18 19 20 16 14 13 18 18 17 17 16 16 16 16 15 10 10 6 8 10 10
2 6 4 8 10 11 9 6 6 7 7 8 8 12 9 14 13 14 11 18 19 18 20 19 19 19 18 15 14 13 15 14 13 12 12 13 14 14 16 16 12 13 13 11
5 2 2 6 6 8 5 6 4 5 6 7 6 6 6 13 14 17 22 19 19 18 16 16 15 15 14 12 12 12 11 10 10 10 9 8 8 11 14 14 14 14 14 15
5 6 4 3 8 4 6 4 1 3 4 5 5 7 5 9 12 16 24 22 20 20 20 19 17 14 13 11 11 11 11 9 9 8 8 8 4 6 12 16 12 11 15 15
Wind_Direction
202 216 220 219 221 193 153 85 126 136 145 134 155 329 257 241 279 239 167 166 148 167 162 164 154 144 141 151 158 155 157 157 172 143 143 140 150 133 151 166 133 120 95 146
178 224 235 226 276 57 280 151 151 132 141 113 157 315 208 283 256 256 171 157 161 165 168 166 158 153 154 160 169 170 172 177 152 151 177 169 157 181 163 153 157 168 161 164
231 210 230 243 209 252 261 152 159 130 142 83 125 42 198 259 295 298 264 169 173 162 193 167 172 162 164 167 180 174 177 173 170 170 168 174 175 161 181 191 183 177 188 154
237 251 203 237 200 212 256 96 105 129 170 205 213 136 225 204 244 288 274 179 201 168 176 169 177 170 165 169 178 177 178 187 185 170 163 170 179 166 192 165 197 210 187 187
223 245 246 223 236 166 104 115 145 167 183 151 205 143 163 175 239 229 227 216 180 187 183 174 179 168 171 168 171 188 199 187 185 185 183 183 169 172 221 189 216 195 193 185
257 213 232 246 244 244 120 126 106 102 217 230 193 178 203 176 207 214 217 227 217 190 194 189 200 174 179 176 179 181 184 197 193 201 192 174 194 199 205 201 206 208 222 193
233 250 264 225 238 187 219 193 174 201 206 235 179 197 232 213 209 199 199 211 204 215 211 183 195 175 183 188 174 177 185 196 205 191 209 183 180 185 201 210 197 200 208 220
205 208 210 222 237 179 214 245 201 289 327 57 335 264 231 201 199 193 197 198 209 202 192 197 200 194 202 192 183 181 187 196 201 198 193 185 189 179 201 220 216 172 257 221
309 230 181 196 237 251 206 215 244 168 127 274 346 13 333 175 187 186 205 193 208 214 206 221 172 174 180 198 192 186 186 188 189 189 196 207 209 177 214 230 204 184 171 159
306 303 190 194 193 259 273 267 220 154 156 300 218 177 304 177 198 182 197 192 203 182 190 216 195 196 197 188 188 186 188 183 185 191 199 203 199 191 207 198 199 213 223 222
297 296 175 155 204 235 221 253 263 267 182 141 281 156 167 232 306 187 189 192 194 206 209 211 190 199 195 183 176 181 175 174 183 188 193 195 200 206 209 203 209 212 212 203
223 286 282 255 207 216 250 225 242 258 252 241 233 267 172 155 274 251 192 199 192 204 206 212 200 196 190 174 179 179 175 182 185 193 187 197 190 198 216 218 222 203 235 210
342 262 266 258 238 238 216 247 251 251 271 279 298 135 181 189 200 191 204 187 192 198 206 210 200 168 174 178 180 187 249 193 197 191 195 199 204 197 208 231 222 215 232 220
316 284 300 7 273 273 302 317 249 255 244 260 258 146 182 186 175 193 174 178 191 198 196 195 166 185 181 217 185 177 176 188 183 188 196 220 210 210 211 227 230 226 230 227
263 270 287 278 299 285 284 294 304 249 256 248 267 132 171 173 169 186 175 153 165 186 175 185 188 161 155 171 178 176 190 195 186 190 214 220 221 218 223 230 232 227 234 235
270 253 276 286 261 246 271 251 287 244 245 258 272 285 160 110 80 357 156 121 121 174 182 176 187 181 186 186 183 170 188 206 219 222 241 241 233 232 227 235 231 216 221 220
318 288 354 299 358 339 263 297 285 293 252 286 284 96 91 64 84 295 312 188 114 129 130 154 167 173 186 196 199 199 214 216 220 230 243 247 249 237 237 238 240 207 209 202
238 275 301 282 358 252 24 10 18 357 17 6 46 62 88 123 152 169 187 198 142 145 156 147 132 163 174 187 187 183 194 208 213 210 223 230 227 235 231 220 214 205 201 196
358 311 277 62 338 295 226 24 13 6 327 8 37 81 92 100 98 87 152 165 158 142 145 167 184 152 174 164 173 182 193 184 174 184 188 193 199 200 209 219 177 156 145 153
330 356 289 318 297 293 318 319 317 339 53 346 35 82 40 359 113 159 137 128 121 134 156 156 159 177 178 155 160 170 173 189 186 183 187 191 194 197 223 223 224 232 216 218
337 321 279 277 151 90 264 314 351 67 354 339 360 84 148 162 300 143 134 134 145 157 143 151 160 166 168 178 185 180 173 167 173 192 202 199 205 215 215 191 196 210 202 200
138 316 317 348 318 117 190 45 22 338 298 333 346 25 110 105 132 130 139 148 152 138 133 140 149 151 162 174 178 174 175 174 179 183 192 179 159 149 163 184 197 211 212 203
213 277 357 143 246 127 74 95 82 16 21 345 342 36 104 115 128 137 137 143 136 131 130 134 134 125 122 130 156 163 150 151 158 161 163 168 163 162 163 175 190 160 145 140
178 36 292 323 134 130 107 102 65 32 20 345 5 9 103 125 132 137 132 124 118 117 122 123 123 122 119 118 116 121 121 122 125 137 144 139 138 143 125 120 131 149 142 130
42 205 352 293 187 138 162 92 30 26 9 5 28 42 93 134 133 146 137 135 135 130 126 123 121 123 123 124 130 130 130 134 132 128 131 126 147 159 158 176 178 183 178 168
238 246 258 337 78 118 114 118 60 348 354 349 8 56 80 139 141 166 156 155 155 145 141 137 128 124 119 122 128 136 135 122 129 138 134 126 175 228 202 203 208 202 203 200
Height
1488 1489 1486 1477 1470 1475 1480 1493 1511 1516 1521 1527 1534 1536 1530 1525 1523 1519 1521 1526 1534 1539 1545 1549 1552 1555 1560 1566 1569 1571 1572 1575 1577 1579 1581 1582 1584 1586 1587 1589 1591 1593 1594 1592
1481 1485 1472 1468 1466 1480 1479 1486 1511 1518 1520 1525 1533 1528 1527 1528 1526 1522 1520 1525 1533 1537 1543 1548 1551 1555 1559 1565 1568 1571 1573 1576 1577 1579 1581 1583 1584 1584 1586 1589 1592 1592 1595 1594
1474 1471 1468 1463 1470 1480 1478 1479 1505 1515 1524 1527 1531 1535 1536 1527 1527 1524 1522 1526 1531 1535 1543 1546 1551 1554 1556 1561 1567 1570 1573 1575 1576 1579 1580 1583 1584 1585 1587 1590 1592 1593 1596 1596
1469 1460 1461 1465 1469 1475 1473 1487 1504 1522 1526 1529 1523 1541 1536 1536 1535 1531 1525 1527 1531 1532 1538 1543 1548 1552 1555 1558 1564 1568 1571 1574 1575 1577 1580 1582 1585 1586 1588 1589 1591 1592 1596 1597
1468 1464 1459 1466 1461 1468 1491 1480 1500 1513 1525 1522 1525 1528 1532 1535 1538 1532 1533 1526 1530 1534 1536 1542 1545 1551 1554 1558 1561 1565 1569 1572 1575 1576 1579 1584 1588 1590 1590 1590 1590 1591 1593 1596
1460 1457 1455 1458 1458 1461 1475 1485 1502 1511 1526 1528 1508 1510 1520 1518 1507 1519 1523 1523 1526 1528 1534 1538 1543 1546 1553 1557 1558 1561 1565 1570 1573 1576 1580 1583 1583 1588 1590 1590 1589 1590 1592 1594
1464 1460 1456 1461 1464 1459 1475 1475 1509 1528 1517 1513 1492 1498 1498 1495 1494 1502 1514 1520 1523 1528 1532 1534 1540 1542 1549 1553 1557 1558 1561 1566 1570 1574 1579 1583 1583 1584 1588 1588 1587 1590 1594 1596
1473 1478 1461 1458 1458 1464 1470 1471 1492 1518 1519 1514 1495 1505 1494 1475 1484 1493 1501 1513 1519 1523 1529 1534 1535 1541 1546 1551 1554 1555 1558 1562 1566 1571 1576 1581 1585 1588 1588 1586 1586 1588 1593 1597
1468 1465 1449 1452 1456 1456 1463 1475 1462 1485 1517 1511 1519 1517 1483 1479 1487 1495 1502 1505 1509 1518 1522 1528 1531 1536 1542 1550 1552 1551 1554 1558 1564 1568 1573 1577 1581 1583 1582 1583 1585 1590 1590 1593
1460 1470 1444 1451 1457 1457 1457 1453 1474 1482 1520 1525 1518 1511 1515 1491 1487 1487 1494 1497 1507 1516 1524 1522 1527 1531 1539 1542 1550 1550 1552 1557 1562 1567 1569 1573 1576 1579 1580 1582 1584 1589 1589 1588
1466 1465 1454 1451 1462 1464 1465 1467 1462 1457 1474 1509 1520 1494 1491 1496 1498 1480 1487 1493 1499 1506 1515 1520 1521 1530 1534 1540 1547 1550 1554 1558 1562 1565 1568 1571 1574 1577 1579 1582 1584 1588 1592 1593
1467 1462 1469 1460 1449 1450 1456 1459 1460 1472 1476 1465 1470 1478 1478 1475 1484 1480 1485 1489 1493 1500 1506 1510 1518 1522 1531 1535 1543 1552 1553 1553 1556 1563 1566 1569 1571 1575 1577 1580 1584 1586 1588 1591
1474 1470 1481 1469 1456 1451 1458 1457 1453 1453 1454 1464 1474 1488 1476 1477 1472 1474 1478 1486 1490 1495 1502 1506 1515 1524 1526 1535 1537 1545 1541 1553 1557 1556 1565 1566 1570 1572 1576 1578 1580 1582 1583 1584
1481 1475 1476 1496 1489 1482 1475 1463 1454 1454 1467 1463 1456 1469 1465 1460 1466 1471 1471 1478 1485 1490 1498 1508 1515 1520 1524 1532 1543 1542 1546 1551 1552 1554 1560 1564 1568 1571 1574 1578 1579 1580 1581 1582
1481 1486 1477 1473 1478 1473 1476 1472 1460 1459 1454 1463 1449 1459 1461 1461 1467 1476 1478 1476 1483 1492 1498 1500 1511 1521 1527 1531 1534 1539 1543 1547 1549 1555 1560 1562 1565 1567 1570 1575 1577 1579 1579 1580
1478 1486 1479 1481 1473 1475 1477 1470 1462 1451 1451 1450 1447 1452 1451 1469 1467 1493 1490 1490 1489 1495 1502 1506 1515 1519 1524 1526 1530 1536 1542 1545 1547 1551 1555 1560 1562 1564 1566 1568 1572 1573 1575 1578
1496 1482 1486 1490 1475 1482 1484 1472 1471 1455 1447 1453 1461 1473 1474 1478 1481 1500 1499 1500 1502 1501 1507 1509 1511 1514 1517 1520 1526 1532 1535 1541 1545 1550 1552 1556 1557 1558 1560 1563 1566 1558 1570 1574
1484 1482 1484 1497 1500 1517 1488 1476 1480 1488 1476 1470 1473 1478 1480 1487 1494 1499 1504 1506 1508 1502 1503 1510 1510 1513 1517 1522 1526 1530 1533 1538 1543 1546 1549 1552 1554 1557 1558 1559 1561 1563 1566 1570
1478 1483 1487 1503 1528 1501 1484 1489 1494 1497 1492 1488 1492 1491 1494 1490 1498 1505 1505 1507 1509 1510 1505 1507 1511 1515 1515 1521 1526 1529 1532 1537 1540 1544 1548 1552 1554 1557 1558 1558 1557 1559 1564 1565
1478 1483 1489 1493 1510 1533 1519 1501 1498 1497 1503 1490 1492 1499 1508 1505 1497 1503 1508 1509 1510 1513 1507 1508 1511 1515 1518 1522 1524 1527 1531 1535 1539 1544 1549 1552 1554 1557 1559 1559 1561 1562 1564 1566
1509 1498 1496 1490 1504 1520 1514 1510 1503 1514 1515 1501 1496 1500 1504 1504 1512 1506 1508 1510 1512 1511 1508 1511 1513 1516 1519 1523 1527 1529 1534 1537 1540 1545 1548 1552 1553 1557 1559 1559 1561 1562 1563 1567
1525 1528 1497 1494 1495 1509 1506 1509 1529 1511 1508 1504 1499 1498 1502 1501 1517 1515 1514 1516 1514 1512 1509 1512 1515 1517 1522 1525 1528 1530 1535 1538 1539 1543 1547 1550 1552 1555 1558 1559 1561 1563 1565 1567
1498 1495 1498 1512 1509 1504 1501 1505 1507 1508 1505 1504 1500 1502 1500 1503 1512 1520 1517 1515 1514 1512 1514 1515 1519 1520 1525 1528 1530 1531 1534 1537 1539 1543 1547 1550 1552 1555 1559 1559 1561 1565 1565 1567
1488 1493 1496 1495 1497 1498 1501 1505 1508 1510 1509 1509 1506 1505 1500 1505 1513 1511 1516 1517 1518 1517 1520 1522 1524 1526 1529 1532 1533 1533 1534 1537 1540 1546 1549 1550 1552 1556 1559 1560 1560 1564 1566 1568
1493 1498 1497 1497 1495 1500 1503 1506 1509 1509 1510 1510 1511 1511 1511 1512 1513 1515 1518 1521 1522 1523 1525 1527 1529 1530 1532 1534 1535 1536 1538 1541 1543 1547 1548 1551 1554 1558 1560 1560 1561 1564 1567 1568
1492 1494 1497 1500 1500 1503 1507 1508 1510 1510 1511 1510 1510 1512 1514 1512 1515 1517 1518 1520 1522 1527 1529 1530 1531 1533 1534 1536 1537 1539 1541 1544 1545 1547 1549 1553 1557 1560 1559 1561 1564 1565 1567 1568